Dumas, TX

3:42 AM CDT on June 27, 2017 (GMT -0500)
Moore County

Weather History for KDUX - November, 2012

Change the Weather History Date:

Thursday, November 22, 2012

  Actual Average (KDHT) Record (KDHT)
Temperature  
Mean Temperature 53 °F -  
Max Temperature 69 °F 53 °F 81 °F (1998)
Min Temperature 37 °F 26 °F 3 °F (1972)
Degree Days  
Heating Degree Days 12    
Growing Degree Days 3 (Base 50)    
Moisture  
Dew Point 31 °F    
Average Humidity 48    
Maximum Humidity 81    
Minimum Humidity 18    
Precipitation  
Precipitation 0.00 in - - ()
Sea Level Pressure  
Sea Level Pressure 30.07 in    
Wind  
Wind Speed 15 mph (NNW)    
Max Wind Speed 25 mph    
Max Gust Speed 33 mph    
Visibility 10 miles    
Events      
Averages and records for this station are not official NWS values.
T = Trace of Precipitation, MM = Missing Value Source: NWS Daily Summary

Daily Weather History Graph

Daily Weather History Graph

Search for Another Location

Airport or City:

Trip Planner

Search our weather history database for the weather conditions in past years. The results will help you decide how hot, cold, wet, or windy it might be!

Date:

Astronomy

Nov. 22, 2012 Rise Set
Actual Time 7:31 AM CST 5:36 PM CST
Civil Twilight 7:04 AM CST 6:04 PM CST
Nautical Twilight 6:32 AM CST 6:35 PM CST
Astronomical Twilight 6:02 AM CST 7:06 PM CST
Moon 2:14 PM CST (11/22) 2:03 AM CST (11/22)
Length of Visible Light 11h 00m
Length of Day
10h 04m
Waxing Gibbous, 71% of the Moon is Illuminated
Nov 22
Waxing Gibbous
Nov 28
Full
Dec 6
Last Quarter
Dec 13
New
Dec 19
First Quarter

Hourly Weather History & Observations

Time (CST) Temp. Windchill Dew Point Humidity Pressure Visibility Wind Dir Wind Speed Gust Speed Precip Events Conditions
12:15 AM 53.6 °F - 41.0 °F 62% 29.98 in 10.0 mi SSW 15.0 mph - N/A   Clear
12:35 AM 53.6 °F - 41.0 °F 62% 29.97 in 10.0 mi SW 16.1 mph - N/A   Clear
12:55 AM 50.0 °F - 39.2 °F 66% 29.96 in 10.0 mi SSW 12.7 mph - N/A   Clear
1:15 AM 53.6 °F - 41.0 °F 62% 29.96 in 10.0 mi SSW 15.0 mph - N/A   Clear
1:35 AM 51.8 °F - 41.0 °F 67% 29.95 in 10.0 mi South 12.7 mph - N/A   Clear
1:55 AM 51.8 °F - 41.0 °F 67% 29.95 in 10.0 mi SSW 11.5 mph - N/A   Clear
2:15 AM 50.0 °F - 41.0 °F 71% 29.95 in 10.0 mi SSW 9.2 mph - N/A   Clear
2:35 AM 50.0 °F - 41.0 °F 71% 29.94 in 10.0 mi SSW 11.5 mph - N/A   Clear
2:55 AM 51.8 °F - 41.0 °F 67% 29.93 in 10.0 mi SSW 13.8 mph - N/A   Clear
3:15 AM 53.6 °F - 41.0 °F 62% 29.93 in 10.0 mi SW 17.3 mph - N/A   Clear
3:35 AM 51.8 °F - 41.0 °F 67% 29.93 in 10.0 mi SW 15.0 mph - N/A   Clear
3:55 AM 51.8 °F - 41.0 °F 67% 29.92 in 10.0 mi SW 17.3 mph - N/A   Clear
4:15 AM 51.8 °F - 41.0 °F 67% 29.91 in 10.0 mi SW 16.1 mph - N/A   Clear
4:35 AM 51.8 °F - 41.0 °F 67% 29.91 in 10.0 mi SW 16.1 mph - N/A   Clear
4:55 AM 50.0 °F - 41.0 °F 71% 29.92 in 10.0 mi WSW 13.8 mph - N/A   Clear
5:15 AM 46.4 °F 41.1 °F 41.0 °F 81% 29.92 in 10.0 mi SW 11.5 mph - N/A   Clear
5:35 AM 44.6 °F 38.8 °F 39.2 °F 81% 29.92 in 10.0 mi WSW 11.5 mph - N/A   Clear
5:55 AM 44.6 °F 37.8 °F 39.2 °F 81% 29.92 in 10.0 mi WSW 15.0 mph - N/A   Clear
6:15 AM 44.6 °F 37.8 °F 37.4 °F 76% 29.92 in 10.0 mi WSW 15.0 mph - N/A   Clear
6:35 AM 44.6 °F 37.8 °F 37.4 °F 76% 29.92 in 10.0 mi WSW 15.0 mph - N/A   Clear
6:55 AM 44.6 °F 37.4 °F 35.6 °F 71% 29.93 in 10.0 mi SW 16.1 mph - N/A   Clear
7:15 AM 42.8 °F 35.1 °F 35.6 °F 76% 29.93 in 10.0 mi SW 16.1 mph - N/A   Clear
7:35 AM 42.8 °F 35.4 °F 35.6 °F 76% 29.93 in 10.0 mi WSW 15.0 mph - N/A   Clear
7:55 AM 42.8 °F 37.0 °F 33.8 °F 70% 29.95 in 10.0 mi West 10.4 mph - N/A   Clear
8:15 AM 42.8 °F 37.0 °F 32.0 °F 66% 29.97 in 10.0 mi West 10.4 mph - N/A   Clear
8:35 AM 46.4 °F 40.7 °F 32.0 °F 57% 29.97 in 10.0 mi West 12.7 mph - N/A   Clear
8:55 AM 48.2 °F - 32.0 °F 54% 29.98 in 10.0 mi West 13.8 mph - N/A   Clear
9:15 AM 50.0 °F - 28.4 °F 43% 29.99 in 10.0 mi West 13.8 mph - N/A   Clear
9:35 AM 50.0 °F - 30.2 °F 47% 30.00 in 10.0 mi West 11.5 mph - N/A   Clear
9:55 AM 53.6 °F - 30.2 °F 41% 30.00 in 10.0 mi WNW 9.2 mph - N/A   Clear
10:15 AM 60.8 °F - 23.0 °F 23% 30.00 in 10.0 mi NNW 13.8 mph - N/A   Clear
10:35 AM 62.6 °F - 19.4 °F 19% 30.01 in 10.0 mi NNW 16.1 mph 21.9 mph N/A   Clear
10:55 AM 62.6 °F - 21.2 °F 20% 30.02 in 10.0 mi NNW 18.4 mph - N/A   Clear
11:15 AM 62.6 °F - 21.2 °F 20% 30.02 in 10.0 mi North 20.7 mph - N/A   Clear
11:35 AM 66.2 °F - 21.2 °F 18% 30.02 in 10.0 mi NNE 25.3 mph 29.9 mph N/A   Clear
11:55 AM 66.2 °F - 23.0 °F 19% 30.02 in 10.0 mi NE 23.0 mph 32.2 mph N/A   Scattered Clouds
12:15 PM 66.2 °F - 24.8 °F 21% 30.02 in 10.0 mi NNE 21.9 mph 33.4 mph N/A   Clear
12:35 PM 68.0 °F - 24.8 °F 20% 30.02 in 10.0 mi NNE 23.0 mph 27.6 mph N/A   Clear
12:55 PM 68.0 °F - 24.8 °F 20% 30.02 in 10.0 mi NNE 21.9 mph 27.6 mph N/A   Clear
1:15 PM 68.0 °F - 24.8 °F 20% 30.02 in 10.0 mi NNE 20.7 mph 26.5 mph N/A   Clear
1:35 PM 69.8 °F - 24.8 °F 18% 30.02 in 10.0 mi NNE 16.1 mph 24.2 mph N/A   Clear
1:55 PM 69.8 °F - 24.8 °F 18% 30.02 in 10.0 mi NNE 19.6 mph 25.3 mph N/A   Clear
2:15 PM 69.8 °F - 24.8 °F 18% 30.03 in 10.0 mi NNE 19.6 mph 25.3 mph N/A   Clear
2:35 PM 69.8 °F - 26.6 °F 20% 30.03 in 10.0 mi NNE 20.7 mph 27.6 mph N/A   Clear
2:55 PM 68.0 °F - 26.6 °F 21% 30.04 in 10.0 mi NNE 18.4 mph 24.2 mph N/A   Clear
3:15 PM 68.0 °F - 26.6 °F 21% 30.06 in 10.0 mi NNE 19.6 mph 27.6 mph N/A   Scattered Clouds
3:35 PM 64.4 °F - 26.6 °F 24% 30.07 in 10.0 mi NNE 19.6 mph 28.8 mph N/A   Scattered Clouds
3:55 PM 62.6 °F - 26.6 °F 26% 30.08 in 10.0 mi NNE 17.3 mph - N/A   Scattered Clouds
4:15 PM 62.6 °F - 26.6 °F 26% 30.10 in 10.0 mi NNE 18.4 mph 26.5 mph N/A   Scattered Clouds
4:35 PM 62.6 °F - 26.6 °F 26% 30.11 in 10.0 mi NNE 20.7 mph 26.5 mph N/A   Clear
4:55 PM 60.8 °F - 26.6 °F 27% 30.13 in 10.0 mi NNE 16.1 mph 24.2 mph N/A   Clear
5:15 PM 59.0 °F - 26.6 °F 29% 30.14 in 10.0 mi NNE 11.5 mph 20.7 mph N/A   Clear
5:35 PM 59.0 °F - 28.4 °F 31% 30.15 in 10.0 mi NNE 12.7 mph 19.6 mph N/A   Clear
5:55 PM 55.4 °F - 28.4 °F 36% 30.16 in 10.0 mi NNE 11.5 mph - N/A   Clear
6:15 PM 53.6 °F - 28.4 °F 38% 30.18 in 10.0 mi NNE 11.5 mph - N/A   Clear
6:35 PM 53.6 °F - 28.4 °F 38% 30.20 in 10.0 mi North 11.5 mph - N/A   Clear
6:55 PM 51.8 °F - 28.4 °F 41% 30.21 in 10.0 mi NNE 13.8 mph - N/A   Clear
7:15 PM 51.8 °F - 28.4 °F 41% 30.22 in 10.0 mi NNE 15.0 mph 19.6 mph N/A   Clear
7:35 PM 50.0 °F - 28.4 °F 43% 30.24 in 10.0 mi NNE 16.1 mph - N/A   Clear
7:55 PM 50.0 °F - 28.4 °F 43% 30.25 in 10.0 mi NNE 16.1 mph 21.9 mph N/A   Clear
8:15 PM 48.2 °F - 28.4 °F 46% 30.27 in 10.0 mi NNE 16.1 mph - N/A   Clear
8:35 PM 46.4 °F 39.2 °F 30.2 °F 53% 30.27 in 10.0 mi NNE 18.4 mph 21.9 mph N/A   Clear
8:55 PM 46.4 °F 39.5 °F 30.2 °F 53% 30.29 in 10.0 mi NNE 17.3 mph - N/A   Clear
9:15 PM 46.4 °F 39.2 °F 30.2 °F 53% 30.30 in 10.0 mi NNE 18.4 mph 24.2 mph N/A   Clear
9:35 PM 44.6 °F 37.2 °F 30.2 °F 57% 30.31 in 10.0 mi NNE 17.3 mph 21.9 mph N/A   Clear
9:55 PM 44.6 °F 37.2 °F 30.2 °F 57% 30.32 in 10.0 mi NNE 17.3 mph - N/A   Clear
10:15 PM 42.8 °F 35.8 °F 30.2 °F 61% 30.34 in 10.0 mi NNE 13.8 mph - N/A   Clear
10:35 PM 41.0 °F 33.9 °F 28.4 °F 61% 30.35 in 10.0 mi North 12.7 mph - N/A   Clear
10:55 PM 39.2 °F 32.5 °F 28.4 °F 65% 30.37 in 10.0 mi North 10.4 mph - N/A   Clear
11:15 PM 37.4 °F 30.8 °F 28.4 °F 70% 30.38 in 10.0 mi North 9.2 mph - N/A   Clear
11:35 PM 37.4 °F 32.1 °F 28.4 °F 70% 30.40 in 10.0 mi NNE 6.9 mph - N/A   Clear
11:55 PM 37.4 °F 31.4 °F 26.6 °F 65% 30.41 in 10.0 mi NNE 8.1 mph - N/A   Clear